Location: Newark
(43.0000°N, 1.6781°W)
Time: 05:06:40
(UTC+00:00)

X-37B - Visible Passes

Search period start: 07 December 2021 00:00
Search period end: 17 December 2021 00:00
Orbit: 330 x 341 km, 45.0° (Epoch: 20 November)

Date Brightness Start Highest point End Pass type
(mag) Time Alt. Az. Time Alt. Az. Time Alt. Az.
07 Dec 2.6 17:14:04 10° S 17:15:54 16° SE 17:17:45 10° ESE visible
07 Dec 2.9 18:48:12 10° WSW 18:49:22 22° WSW 18:49:22 22° WSW visible
08 Dec 1.3 17:33:27 10° SW 17:36:07 35° SSE 17:37:44 19° E visible
08 Dec 3.9 19:08:41 10° W 19:08:58 12° W 19:08:58 12° W visible
09 Dec 0.3 17:53:37 10° WSW 17:56:29 77° SSE 17:57:18 42° E visible
10 Dec 0.5 18:14:06 10° W 18:16:51 63° NNW 18:16:51 63° NNW visible
11 Dec 0.4 16:59:03 10° WSW 17:01:55 76° SSE 17:04:47 10° ENE visible
11 Dec 2.1 18:34:41 10° W 18:36:23 30° WNW 18:36:23 30° WNW visible
12 Dec 0.4 17:19:32 10° W 17:22:23 65° N 17:24:42 14° ENE visible
12 Dec 3.3 18:55:12 10° WNW 18:55:55 16° WNW 18:55:55 16° WNW visible
13 Dec 0.6 17:40:06 10° W 17:42:56 53° N 17:44:16 26° ENE visible
14 Dec 0.4 18:00:37 10° WNW 18:03:29 60° N 18:03:53 51° NE visible
15 Dec 0.6 18:21:05 10° WNW 18:23:35 64° WNW 18:23:35 64° WNW visible
16 Dec 0.4 17:06:02 10° WNW 17:08:54 60° N 17:11:45 10° E visible
16 Dec 2.3 18:41:36 10° W 18:43:24 30° WSW 18:43:24 30° WSW visible
